Bergplaas, South Africa

6:15 PM SAST on August 21, 2017 (GMT +0200)
Bergplaas

Weather History for 68828 - November, 2012

Change the Weather History Date:

Saturday, November 24, 2012

  Actual Average Record
Temperature  
Mean Temperature 62 °F -  
Max Temperature 73 °F 71 °F - ()
Min Temperature 50 °F 56 °F - ()
Degree Days  
Heating Degree Days 3    
Growing Degree Days 12 (Base 50)    
Moisture  
Dew Point 50 °F    
Average Humidity 72    
Maximum Humidity 94    
Minimum Humidity 38    
Precipitation  
Precipitation 0.02 in - - ()
Sea Level Pressure  
Sea Level Pressure 29.75 in    
Wind  
Wind Speed 11 mph ()    
Max Wind Speed 34 mph    
Max Gust Speed 52 mph    
Visibility 7.2 miles    
Events Rain    
T = Trace of Precipitation, MM = Missing Value Source: Averaged Metar Reports

Daily Weather History Graph

Daily Weather History Graph

Search for Another Location

Airport or City:

Trip Planner

Search our weather history database for the weather conditions in past years. The results will help you decide how hot, cold, wet, or windy it might be!

Date:

Astronomy

Nov. 24, 2012 Rise Set
Actual Time 5:13 AM SAST 7:20 PM SAST
Civil Twilight 4:45 AM SAST 7:49 PM SAST
Nautical Twilight 4:11 AM SAST 8:23 PM SAST
Astronomical Twilight 3:34 AM SAST 9:00 PM SAST
Moon 3:48 PM SAST (11/24) 2:33 AM SAST (11/24)
Length of Visible Light 15h 03m
Length of Day
14h 07m
Waxing Gibbous, 85% of the Moon is Illuminated
Nov 24
Waxing Gibbous
Nov 28
Full
Dec 6
Last Quarter
Dec 13
New
Dec 20
First Quarter

Hourly Weather History & Observations

Time (SAST) Temp. Dew Point Humidity Pressure Visibility Wind Dir Wind Speed Gust Speed Precip Events Conditions
12:00 AM 62.6 °F 60.8 °F 94% 29.65 in 6.2 mi West 3.5 mph - N/A   Overcast
1:00 AM 62.6 °F 60.8 °F 94% 29.65 in 6.2 mi West 6.9 mph - N/A   Mostly Cloudy
2:00 AM 62 °F 58 °F 84% 29.63 in 6 mi WSW 6.9 mph - -  
2:00 AM 62.6 °F 59.0 °F 88% 29.62 in 6.2 mi WSW 6.9 mph - N/A   Overcast
3:00 AM 60.8 °F 59.0 °F 94% 29.62 in 6.2 mi WSW 6.9 mph - N/A   Mostly Cloudy
4:00 AM 60.8 °F 57.2 °F 88% 29.62 in 6.2 mi WSW 9.2 mph - N/A   Overcast
5:00 AM 59 °F 55 °F 82% 29.64 in 12 mi WSW 9.2 mph - -   Overcast
5:00 AM 59.0 °F 55.4 °F 88% 29.62 in 6.2 mi WSW 4.6 mph - N/A   Mostly Cloudy
6:00 AM 60.8 °F 55.4 °F 82% 29.62 in 6.2 mi West 8.1 mph - N/A   Scattered Clouds
7:00 AM 62.6 °F 53.6 °F 72% 29.65 in 6.2 mi WNW 8.1 mph - N/A   Partly Cloudy
8:00 AM 65 °F 54 °F 58% 29.65 in 12 mi NW 8.1 mph - -   Scattered Clouds
8:00 AM 66.2 °F 53.6 °F 64% 29.65 in 6.2 mi NNW 8.1 mph - N/A   Partly Cloudy
9:00 AM 73.4 °F 46.4 °F 38% 29.65 in 6.2 mi WNW 15.0 mph - N/A   Partly Cloudy
10:00 AM 71.6 °F 46.4 °F 41% 29.65 in 6.2 mi West 21.9 mph - N/A   Mostly Cloudy
11:00 AM 61 °F 52 °F 65% 29.72 in 12 mi WSW 28.8 mph - - Rain Light Rain
11:00 AM 59.0 °F 51.8 °F 77% 29.71 in 6.2 mi WSW 28.8 mph - N/A   Mostly Cloudy
12:00 PM 59.0 °F 50.0 °F 72% 29.74 in 6.2 mi West 21.9 mph - N/A   Mostly Cloudy
1:00 PM 57.2 °F 48.2 °F 72% 29.77 in 6.2 mi West 20.7 mph - N/A   Mostly Cloudy
2:00 PM 58 °F 52 °F 73% 29.76 in 12 mi NW 16.1 mph - -   Mostly Cloudy
2:00 PM 57.2 °F 53.6 °F 88% 29.74 in 6.2 mi NW 15.0 mph - N/A   Mostly Cloudy
3:00 PM 57.2 °F 53.6 °F 88% 29.77 in - SW 23.0 mph - N/A Rain Rain
4:00 PM 57.2 °F 48.2 °F 72% 29.77 in 6.2 mi WSW 24.2 mph - N/A   Mostly Cloudy
5:00 PM 56 °F 46 °F 59% 29.84 in 12 mi WSW 21.9 mph - -   Mostly Cloudy
5:00 PM 55.4 °F 44.6 °F 67% 29.83 in 6.2 mi WSW 21.9 mph - N/A   Mostly Cloudy
6:00 PM 55.4 °F 42.8 °F 63% 29.89 in 6.2 mi West 34.5 mph 51.8 mph N/A   Mostly Cloudy
7:00 PM 53.6 °F 37.4 °F 54% 29.95 in 6.2 mi West 26.5 mph 38.0 mph N/A   Scattered Clouds
8:00 PM 51.8 °F 37.4 °F 58% 30.01 in 6.2 mi West 23.0 mph 35.7 mph N/A   Scattered Clouds
9:00 PM 51.8 °F 37.4 °F 58% 30.04 in 6.2 mi WNW 15.0 mph - N/A   Partly Cloudy
10:00 PM 51.8 °F 39.2 °F 62% 30.06 in 6.2 mi West 20.7 mph - N/A   Scattered Clouds
11:00 PM 50.0 °F 42.8 °F 76% 30.12 in 6.2 mi West 11.5 mph - N/A Rain Light Rain